Location: LDNL
(36.4545°S, 141.6685°E)
Time: 03:51:01
(UTC+10:00)

Courier 1B Rocket - Pass Details

Date: 03 June 2024
Orbit: 920 x 1201 km, 28.3° (Epoch: 14 June)

Event Time Altitude Azimuth Distance (km) Brightness Sun altitude
Exits shadow 05:31:23 12° 325° (NW) 2,936 7.3 -24.7°
Maximum altitude 05:32:09 12° 331° (NNW) 2,930 7.3 -24.6°
Drops below altitude 10° 05:34:37 10° 350° (N) 3,082 7.6 -24.1°
Sets 05:39:54 0° 19° (NNE) 4,074 8.7 -23.1°
